Location: N�rnberg
(49.4489°N, 11.0797°E)
Time: 08:14:36
(UTC+01:00)

ISS - Pass Details

Date: 13 January 2018
Orbit: 401 x 406 km, 51.6° (Epoch: 17 January)

Event Time Altitude Azimuth Distance (km) Brightness Sun altitude
Exits shadow 05:34:43 31° 133° (SE) 744 -2.1 -24.1°
Drops below altitude 10° 05:36:35 10° 123° (ESE) 1,461 -0.2 -23.8°
Sets 05:38:41 0° 120° (ESE) 2,320 1.1 -23.4°
